Retour au catalogue

NOAA 16 DEB

ActifSSO
NORAD 41153·DEBRIS·🇺🇸 United States

Lancé Sep 21, 2000 depuis Vandenberg Space Force Base

Loading…

Prochains Passages (prochaines 24 heures)

TLE

FraisSource: Space-Track

Époque: Sep 14, 2026, 13:20 UTC

1 41153U 00055CL  26257.55623835  .00003741  00000-0  12218-2 0  9994
2 41153  98.7959  15.7186 0016140 230.4488 129.5273 14.39121574559568

Suivez NOAA 16 DEB en temps réel avec AllMySat

Download on the App Store